Location: Mountain_View
(35.6670°N, 81.4000°W)
Time: 22:13:29
(UTC-05:00)

ISS - Visible Passes

Search period start: 16 November 2019 00:00
Search period end: 26 November 2019 00:00
Orbit: 412 x 421 km, 51.6° (Epoch: 17 November)

Date Brightness Start Highest point End Pass type
(mag) Time Alt. Az. Time Alt. Az. Time Alt. Az.
18 Nov -1.6 18:38:37 10° SSE 18:39:52 15° SSE 18:39:52 15° SSE visible
19 Nov -1.5 19:25:29 10° SW 19:26:55 23° SW 19:26:55 23° SW visible
20 Nov -3.6 18:37:13 10° SSW 18:40:28 53° SE 18:40:56 48° E visible
21 Nov -2.5 17:49:18 10° S 17:52:10 27° SE 17:54:52 11° ENE visible
21 Nov -1.4 19:25:59 10° W 19:27:47 22° WNW 19:27:47 22° WNW visible
22 Nov -2.9 18:37:09 10° WSW 18:40:22 44° NW 18:41:36 29° NNE visible
23 Nov -3.7 17:48:35 10° SW 17:51:56 85° NW 17:55:17 10° NE visible
23 Nov -0.8 19:27:28 10° NW 19:28:15 12° NW 19:28:15 12° NW visible
24 Nov -1.5 18:38:02 10° WNW 18:40:27 18° NNW 18:41:54 15° N visible
25 Nov -2.1 17:48:55 10° W 17:51:52 28° NW 17:54:50 10° NNE visible
